Weather in Chavakachcheri

Sri Lanka     9°38′59″N   80°02′25″E
temp.,
°C
wind,
m/s
gust,
m/s
humid.,
%
clouds,
%
prec.,
mm/h
press.,
hPa
HPBL,
m
10 august, wed
wed1023:30+28ssw81280100 0.0 1006804
02:30+28sw91275100 0.0 10041009
05:30+28sw81274100 0.0 10051043
08:30+29sw71172100 0.0 10061169
11:30+29sw81069100 0.0 10061165
14:30+28ssw81075100 0.0 1003701
17:30+27s111483100 0.0 1003572
20:30+27ssw101586100 0.0 1005664
11 august, thu
thu1123:30+28ssw81182100 0.0 1006671
02:30+28sw697476 0.0 1004540
05:30+28sw5774100 0.0 1005525
08:30+28sw677098 0.0 1007620
11:30+29sw786817 0.0 1007930
14:30+29ssw6767100 0.0 1005750
17:30+27ssw9118199 0.0 1005476
20:30+27s101285100 0.0 1007485
12 august, fri
fri1223:30+27s91285100 0.1 1007614
02:30+27ssw81082100 0.5 1006560
05:30+28ssw688084 0.5 1006480
08:30+28ssw667482 0.0 1008662
11:30+29ssw5569100 0.0 1008820
14:30+29ssw5569100 0.0 1006636
17:30+27s7979100 0.0 1005364
20:30+27ssw91181100 0.0 1007437
13 august, sat
sat1323:30+27s81181100 0.0 1007484
02:30+27ssw7981100 0.0 1006491
05:30+27ssw5680100 0.7 1006367
08:30+28ssw447593 0.1 1008406
11:30+30ssw446394 0.1 1008690
14:30+30ssw656589 0.0 1005663
17:30+28ssw6874100 0.0 1005344
20:30+28ssw6978100 0.0 1007332
14 august, sun
sun1423:30+27ssw6878100 0.0 1007455
02:30+27ssw6782100 0.0 1005446
05:30+27ssw6781100 0.0 1006429
08:30+28s6676100 0.0 1008513
11:30+28ssw5472100 0.0 1008617
14:30+29ssw5568100 0.0 1006410
17:30+28ssw6875100 0.0 1006290
20:30+28s81076100 0.0 1007308